Date String (YYYY-MM-DD hh:mm:ss) UTC,Instrument flags,Ambient pressure (hPa),Sample flow (lpm),Bypass flow (lpm),Sample temperature (°C),Ambient temperature (°C),ASC tube jacket temperature (°C),LED temperature (°C),Box temperature (°C),Sample RH (%),Span deviation,Mass concentration (μg/m³),Mass concentration (μg/m³),Mass concentration (μg/m³)
DateTimeUTC,F1_M11,P_M11,Q1_M11,Q2_M11,T1_M11,T2_M11,T3_M11,T4_M11,T5_M11,U1_M11,ZSPAN_M11,X2_M11,X0_M11,X1_M11
2021-10-12 23:00:00,,0812.6,5.00,0.00,29.1,28.2,00.0,38.2,30.8,17.5,0001.8,0005.73,0012.41,0004.90
2021-10-12 23:01:00,,0812.7,5.01,0.00,29.1,28.2,00.0,38.2,30.8,17.7,0001.9,0005.69,0011.73,0004.88
2021-10-12 23:02:00,,0812.7,5.00,0.00,29.1,28.2,00.0,38.2,30.8,18.0,0001.8,0005.62,0011.52,0004.86
2021-10-12 23:03:00,,0812.7,4.99,0.00,29.1,28.2,00.0,38.2,30.8,18.1,0001.8,0005.65,0011.54,0004.84
2021-10-12 23:04:00,,0812.8,5.01,0.00,29.1,28.2,00.0,38.2,30.8,18.0,0001.6,0005.67,0011.52,0004.84
2021-10-12 23:05:00,,0812.8,5.00,0.00,29.1,28.2,00.0,38.2,30.8,18.2,0001.4,0005.72,0011.62,0004.86
2021-10-12 23:06:00,,0812.7,5.00,0.00,29.1,28.2,00.0,38.2,30.8,18.3,0001.4,0005.74,0011.75,0004.87
2021-10-12 23:07:00,,0812.5,5.00,0.00,29.1,28.2,00.0,38.2,30.8,18.5,0001.1,0005.76,0011.84,0004.87
2021-10-12 23:08:00,,0812.3,5.00,0.00,29.1,28.2,00.0,38.2,30.8,18.5,0001.3,0005.78,0011.54,0004.87
2021-10-12 23:09:00,,0812.1,5.00,0.00,29.0,28.2,00.0,38.2,30.8,18.5,0001.1,0005.81,0011.05,0004.89
2021-10-12 23:10:00,,0812.2,5.01,0.00,29.0,28.1,00.0,38.2,30.8,18.7,0001.3,0005.83,0010.99,0004.91
2021-10-12 23:11:00,,0812.2,4.99,0.00,29.0,28.1,00.0,38.2,30.7,18.7,0001.6,0005.86,0010.95,0004.92
2021-10-12 23:12:00,,0812.3,5.01,0.00,29.0,28.1,00.0,38.2,30.7,18.6,0001.6,0005.90,0010.91,0004.93
2021-10-12 23:13:00,,0812.3,5.01,0.00,29.0,28.1,00.0,38.2,30.7,18.6,0001.8,0005.92,0010.67,0004.95
2021-10-12 23:14:00,,0812.3,5.00,0.00,28.9,28.0,00.0,38.2,30.7,18.9,0001.7,0005.91,0010.65,0004.95
2021-10-12 23:15:00,,0812.4,4.99,0.00,28.9,28.0,00.0,38.1,30.7,18.8,0001.3,0005.91,0010.77,0004.95
2021-10-12 23:16:00,,0812.5,5.00,0.00,28.9,28.0,00.0,38.1,30.6,18.8,0001.0,0005.93,0011.32,0004.95
2021-10-12 23:17:00,,0812.5,5.01,0.00,28.9,28.0,00.0,38.1,30.6,18.6,0000.6,0005.96,0011.63,0004.98
2021-10-12 23:18:00,,0812.6,5.00,0.00,28.9,28.0,00.0,38.1,30.6,18.7,0001.0,0005.97,0011.97,0005.00
2021-10-12 23:19:00,,0812.7,5.00,0.00,28.9,28.0,00.0,38.1,30.6,18.9,0000.7,0006.02,0012.59,0005.02
2021-10-12 23:20:00,,0812.8,5.01,0.00,28.9,28.0,00.0,38.1,30.6,18.9,0001.1,0006.01,0012.55,0005.00
2021-10-12 23:21:00,,0812.8,4.99,0.00,28.9,28.0,00.0,38.1,30.6,18.9,0001.2,0005.98,0012.57,0004.97
2021-10-12 23:22:00,,0813.1,5.00,0.00,28.9,28.0,00.0,38.1,30.6,18.9,0001.3,0005.92,0012.47,0004.95
2021-10-12 23:23:00,,0813.1,5.01,0.00,28.9,28.0,00.0,38.1,30.7,18.8,0001.2,0005.87,0012.12,0004.93
2021-10-12 23:24:00,,0813.1,4.99,0.00,28.9,28.0,00.0,38.1,30.6,18.8,0001.4,0005.88,0012.13,0004.93
2021-10-12 23:25:00,,0813.3,4.99,0.00,28.9,28.0,00.0,38.1,30.6,18.9,0001.6,0005.86,0012.26,0004.92
2021-10-12 23:26:00,,0813.3,5.01,0.00,28.9,28.0,00.0,38.1,30.6,18.9,0001.8,0005.83,0012.18,0004.91
2021-10-12 23:27:00,,0813.4,5.00,0.00,28.8,28.0,00.0,38.0,30.5,18.7,0002.1,0005.81,0011.62,0004.93
2021-10-12 23:28:00,,0813.3,4.99,0.00,28.8,28.0,00.0,38.0,30.6,18.8,0002.4,0005.80,0011.69,0004.92
2021-10-12 23:29:00,,0813.3,4.99,0.00,28.8,28.0,00.0,38.0,30.6,18.8,0002.1,0005.75,0011.74,0004.89
2021-10-12 23:30:00,,0813.2,4.99,0.00,28.9,28.0,00.0,38.0,30.6,18.5,0002.1,0005.66,0010.93,0004.89
2021-10-12 23:31:00,,0813.1,5.01,0.00,28.9,28.0,00.0,38.0,30.6,18.7,0002.1,0005.64,0010.87,0004.89
2021-10-12 23:32:00,,0813.1,5.01,0.00,28.9,28.0,00.0,38.0,30.6,18.7,0001.9,0005.64,0010.92,0004.91
2021-10-12 23:33:00,,0813.1,5.00,0.00,28.9,28.1,00.0,38.0,30.7,18.5,0002.2,0005.69,0010.96,0004.93
2021-10-12 23:34:00,,0813.1,4.99,0.00,28.9,28.1,00.0,38.0,30.7,18.5,0002.3,0005.72,0011.04,0004.95
2021-10-12 23:35:00,,0813.2,5.01,0.00,28.9,28.1,00.0,38.0,30.7,18.2,0002.1,0005.73,0010.97,0004.96
2021-10-12 23:36:00,,0813.3,5.01,0.00,28.9,28.1,00.0,38.0,30.7,18.5,0001.8,0005.77,0011.23,0004.97
2021-10-12 23:37:00,,0813.4,5.00,0.00,28.9,28.1,00.0,38.0,30.7,18.6,0001.7,0005.81,0011.65,0005.00
2021-10-12 23:38:00,,0813.5,5.00,0.00,28.9,28.1,00.0,38.0,30.7,18.7,0001.5,0005.83,0011.85,0005.00
2021-10-12 23:39:00,,0813.6,4.99,0.00,28.9,28.1,00.0,38.0,30.7,18.9,0001.3,0005.85,0011.31,0005.01
2021-10-12 23:40:00,,0813.5,5.00,0.00,28.9,28.1,00.0,38.0,30.7,18.9,0001.3,0005.93,0011.44,0005.03
2021-10-12 23:41:00,,0813.6,5.01,0.00,28.9,28.1,00.0,38.0,30.7,18.8,0001.2,0006.00,0011.78,0005.04
2021-10-12 23:42:00,,0813.5,5.00,0.00,28.9,28.1,00.0,38.0,30.7,18.5,0001.0,0006.00,0011.81,0005.06
2021-10-12 23:43:00,,0813.6,4.99,0.00,28.9,28.0,00.0,38.0,30.7,18.5,0001.2,0006.05,0011.92,0005.08
2021-10-12 23:44:00,,0813.3,5.01,0.00,28.9,28.1,00.0,38.1,30.7,18.5,0000.5,0006.07,0012.14,0005.08
2021-10-12 23:45:00,,0813.3,4.99,0.00,28.9,28.1,00.0,38.1,30.7,18.5,0000.3,0006.08,0012.85,0005.07
2021-10-12 23:46:00,,0813.1,5.01,0.00,28.9,28.0,00.0,38.0,30.7,18.6,-000.0,0006.09,0013.26,0005.08
2021-10-12 23:47:00,,0813.1,4.99,0.00,28.9,28.1,00.0,38.0,30.7,18.6,-000.1,0006.08,0013.20,0005.08
2021-10-12 23:48:00,,0813.1,4.99,0.00,28.9,28.1,00.0,38.0,30.7,18.6,0000.5,0006.10,0013.16,0005.09
2021-10-12 23:49:00,,0813.3,5.00,0.00,28.9,28.1,00.0,38.0,30.7,18.5,0000.3,0006.09,0013.02,0005.08
2021-10-12 23:50:00,,0813.1,5.01,0.00,29.0,28.1,00.0,38.0,30.7,18.6,0000.4,0006.10,0013.52,0005.08
2021-10-12 23:51:00,,0812.8,5.00,0.00,29.0,28.1,00.0,38.1,30.7,18.6,0001.0,0006.13,0013.70,0005.09
2021-10-12 23:52:00,,0812.7,5.01,0.00,29.0,28.1,00.0,38.1,30.7,18.5,0001.2,0006.10,0013.45,0005.09
2021-10-12 23:53:00,,0812.8,5.00,0.00,29.0,28.1,00.0,38.1,30.7,18.5,0001.6,0006.13,0013.50,0005.10
2021-10-12 23:54:00,,0812.7,4.99,0.00,28.9,28.1,00.0,38.1,30.7,18.4,0001.6,0006.13,0013.36,0005.10
2021-10-12 23:55:00,,0812.7,4.99,0.00,29.0,28.1,00.0,38.1,30.7,18.4,0001.6,0006.09,0013.64,0005.10
2021-10-12 23:56:00,,0812.7,5.00,0.00,29.0,28.1,00.0,38.1,30.7,18.3,0001.9,0006.10,0013.26,0005.11
2021-10-12 23:57:00,,0812.7,5.01,0.00,29.0,28.1,00.0,38.1,30.7,18.2,0002.3,0006.11,0012.82,0005.11
2021-10-12 23:58:00,,0812.6,5.01,0.00,29.0,28.1,00.0,38.1,30.7,18.3,0002.2,0006.13,0012.79,0005.11
2021-10-12 23:59:00,,0812.5,4.99,0.00,29.0,28.1,00.0,38.1,30.7,18.3,0001.6,0006.10,0012.55,0005.10
